STARLINK-34570, 64860

Orbit data source: Space-Track

STARLINK-34570, 64860 is a payload satellite owned by SpaceX/Seattle (US) in SSO that was launched on Sat, 19 Jul 2025 UTC via an FALCON 9 launch vehicle from the Air Force Western Test Range (AFWTR). Payload-class satellites include a variety of spacecraft equipped with specific instruments for various scientific and technological missions. These include communications satellites like Starlink; space stations such as the ISS; scientific satellites like the Hubble; Earth observation satellites from companies like Planet Labs, Umbra, and HawkEye 360; GPS; miniature CubeSats for education and research; and military/defense satellites.

Loading next visibility...
Identifier
64860, 2025-152U
Orbit
SSO
Country
Flag of USUS
Related business
Manufacturer
SpaceX/Seattle
Mission
Operational Commercial Communications
Bus & Motor
STARLINK V2MO, Unknown motor
Mass
575 kg wet, ~530 kg dry
Launch date (UTC)
2025-07-19 (9 months ago)
Launch vehicle
FALCON 9
Launch site
Air Force Western Test Range (AFWTR)
Object type
Payload
Rocket body
Debris
Shape & HBR
Box + 2 Pan, 17.7 m
Radar Cross Section
36.964 m², Large (>1 m²)

Expand to show TLE details & history
Last TLE update: 12 hours ago

TLE from 12 hours ago
0 STARLINK-34570
1 64860U 25152U   26094.87164458  .00001610  00000-0  11580-3 0  9999
2 64860  97.6024 311.2693 0002193  82.1898 277.9577 15.05636528 39355
Epoch: 2026-04-04T20:55Z
TLE epoch observation values (Epoch: 2026-04-04T20:55:10.091Z)
Latitude
-0.0001°
Longitude
164.29207°
Altitude
552.408 km
Speed
7.586 km/s
True Right ascension
20h 45m 04s
True Declination
0° 00' 00"
Sunlit
Object was in daylight at epoch
Visualization orbit readout
Latitude
Unknown
Longitude
Unknown
Altitude
Unknown
Speed
Unknown
Apparent Right ascension
Unknown
Apparent Declination
Unknown
Sunlit
N/A
Visualization observer readout
Local Sidereal Time
14:30:51
Azimuth
Unknown
Elevation
Unknown
Doppler factor
Unknown
Orbital elements
Apogee altitude
548.065 km
Perigee altitude
545.027 km
Semi-major axis
6,924.683 km
Eccentricity
0.00022
Inclination
97.6024°
RAAN
311.2693°
Arg. of periapsis
82.1898°
True anomaly
277.93281°
Mean anomaly
277.9577°
Eccentric anomaly
277.94526°
Mean motion
3.76655 °/min
Orbital period
95.58 mins
BSTAR
0.0001158
Loading maneuver chart data...
Computing Atmospheric mass density...
Loading historical data...
Loading historical data...
Loading historical data...
Loading historical data...
Loading historical data...
Loading historical data...
Loading historical data...

Documentation

Showing up to 5 results
|